| time (UTC) | temp F | wind direction | speed knots | gust knots | rain 1hr in | rain 24hr in | rain mn in | humidity % | barometer mb |
| 20260508100503 | 37 | 258 | 2.6 | 5.2 | 0.00 | 0.00 | 0.00 | 79 | 1005.9 |
| 20260508100003 | 36 | 268 | 2.6 | 5.2 | 0.00 | 0.00 | 0.00 | 79 | 1005.7 |
| 20260508095503 | 37 | 285 | 1.7 | 2.6 | 0.00 | 0.00 | 0.00 | 78 | 1005.7 |
| 20260508095003 | 37 | 286 | 1.7 | 2.6 | 0.00 | 0.00 | 0.00 | 78 | 1005.6 |
| 20260508094503 | 37 | 286 | 0.9 | 2.6 | 0.00 | 0.00 | 0.00 | 78 | 1005.6 |
| 20260508094003 | 37 | 286 | 0.9 | 2.6 | 0.00 | 0.00 | 0.00 | 78 | 1005.6 |
| 20260508093524 | 36 | 286 | 0.0 | 2.6 | 0.00 | 0.00 | 0.00 | 78 | 1005.5 |
| 20260508093003 | 36 | 286 | 0.0 | 2.6 | 0.00 | 0.00 | 0.00 | 77 | 1005.5 |
| 20260508092503 | 36 | 0 | 0.0 | 0.0 | 0.00 | 0.00 | 0.00 | 77 | 1005.5 |
| 20260508092003 | 36 | 0 | 0.0 | 0.0 | 0.00 | 0.00 | 0.00 | 77 | 1005.5 |
| 20260508091503 | 36 | 0 | 0.0 | 0.0 | 0.00 | 0.00 | 0.00 | 76 | 1005.4 |
| 20260508091003 | 37 | 0 | 0.0 | 0.0 | 0.00 | 0.00 | 0.00 | 76 | 1005.4 |
| 20260508090503 | 37 | 270 | 0.0 | 1.7 | 0.00 | 0.00 | 0.00 | 76 | 1005.4 |
| 20260508090003 | 37 | 270 | 0.9 | 2.6 | 0.00 | 0.00 | 0.00 | 76 | 1005.2 |
| 20260508085524 | 37 | 270 | 0.9 | 2.6 | 0.00 | 0.00 | 0.00 | 75 | 1005.2 |
| 20260508085024 | 37 | 268 | 0.9 | 2.6 | 0.00 | 0.00 | 0.00 | 75 | 1005.4 |
| 20260508084503 | 38 | 262 | 0.9 | 2.6 | 0.00 | 0.00 | 0.00 | 75 | 1005.2 |
| 20260508084024 | 38 | 260 | 1.7 | 3.5 | 0.00 | 0.00 | 0.00 | 75 | 1005.0 |
| 20260508083503 | 37 | 257 | 1.7 | 5.2 | 0.00 | 0.00 | 0.00 | 75 | 1005.1 |
| 20260508083003 | 38 | 250 | 1.7 | 5.2 | 0.00 | 0.00 | 0.00 | 74 | 1005.1 |
| 20260508082524 | 38 | 247 | 1.7 | 5.2 | 0.00 | 0.00 | 0.00 | 74 | 1005.1 |
| 20260508082024 | 38 | 255 | 0.9 | 5.2 | 0.00 | 0.00 | 0.00 | 74 | 1005.3 |
| 20260508081504 | 38 | 252 | 0.0 | 1.7 | 0.00 | 0.00 | 0.00 | 74 | 1005.2 |
| 20260508081003 | 38 | 252 | 0.0 | 1.7 | 0.00 | 0.00 | 0.00 | 73 | 1005.1 |
| 20260508080524 | 38 | 252 | 0.9 | 1.7 | 0.00 | 0.00 | 0.00 | 72 | 1005.1 |
| 20260508080004 | 39 | 252 | 0.9 | 4.3 | 0.00 | 0.00 | 0.00 | 71 | 1005.1 |
| 20260508075503 | 39 | 242 | 1.7 | 4.3 | 0.00 | 0.00 | 0.00 | 71 | 1004.9 |
| 20260508075024 | 39 | 234 | 1.7 | 3.5 | 0.00 | 0.00 | 0.00 | 71 | 1005.0 |
| 20260508074503 | 39 | 244 | 1.7 | 3.5 | 0.00 | 0.00 | 0.00 | 71 | 1004.9 |
| 20260508074003 | 39 | 253 | 1.7 | 3.5 | 0.00 | 0.00 | 0.00 | 71 | 1004.9 |
| 20260508073503 | 39 | 256 | 1.7 | 5.2 | 0.00 | 0.00 | 0.00 | 71 | 1004.9 |
| 20260508073003 | 39 | 257 | 2.6 | 6.1 | 0.00 | 0.00 | 0.00 | 70 | 1004.9 |
| 20260508072503 | 40 | 247 | 2.6 | 6.1 | 0.00 | 0.00 | 0.00 | 70 | 1004.9 |
| 20260508072003 | 40 | 238 | 2.6 | 4.3 | 0.00 | 0.00 | 0.00 | 69 | 1004.8 |
| 20260508071503 | 40 | 233 | 2.6 | 4.3 | 0.00 | 0.00 | 0.00 | 68 | 1004.8 |
| 20260508071024 | 40 | 234 | 1.7 | 4.3 | 0.00 | 0.00 | 0.00 | 68 | 1004.9 |
| 20260508070524 | 40 | 239 | 1.7 | 5.2 | 0.00 | 0.00 | 0.00 | 68 | 1005.0 |
| 20260508070004 | 41 | 241 | 1.7 | 7.0 | 0.00 | 0.00 | 0.00 | 67 | 1005.1 |
| 20260508065503 | 41 | 254 | 2.6 | 7.0 | 0.00 | 0.00 | 0.00 | 67 | 1005.1 |
| 20260508065003 | 41 | 256 | 2.6 | 6.1 | 0.00 | 0.01 | 0.00 | 67 | 1005.0 |
| 20260508064503 | 41 | 254 | 2.6 | 7.0 | 0.00 | 0.01 | 0.00 | 66 | 1005.1 |
| 20260508064024 | 41 | 256 | 2.6 | 7.0 | 0.00 | 0.01 | 0.00 | 67 | 1005.1 |
| 20260508063503 | 41 | 258 | 3.5 | 7.0 | 0.00 | 0.01 | 0.00 | 66 | 1005.1 |
| 20260508063003 | 41 | 261 | 3.5 | 7.8 | 0.00 | 0.01 | 0.00 | 66 | 1005.3 |
| 20260508062504 | 41 | 266 | 3.5 | 7.8 | 0.00 | 0.01 | 0.00 | 65 | 1005.2 |
| 20260508062003 | 42 | 265 | 2.6 | 7.8 | 0.00 | 0.01 | 0.00 | 65 | 1005.2 |
| 20260508061503 | 42 | 261 | 2.6 | 7.0 | 0.00 | 0.01 | 0.00 | 64 | 1005.2 |
| 20260508061024 | 42 | 261 | 3.5 | 7.8 | 0.00 | 0.01 | 0.00 | 64 | 1005.3 |
| 20260508060503 | 42 | 256 | 3.5 | 7.8 | 0.00 | 0.01 | 0.00 | 63 | 1005.4 |
| 20260508060003 | 42 | 256 | 4.3 | 8.7 | 0.00 | 0.02 | 0.00 | 63 | 1005.4 |
| 20260508055503 | 42 | 260 | 4.3 | 8.7 | 0.00 | 0.03 | 0.00 | 62 | 1005.4 |
| 20260508055003 | 43 | 262 | 4.3 | 8.7 | 0.00 | 0.05 | 0.00 | 62 | 1005.5 |
| 20260508054503 | 43 | 264 | 4.3 | 8.7 | 0.00 | 0.06 | 0.00 | 60 | 1005.5 |
| 20260508054003 | 43 | 267 | 4.3 | 8.7 | 0.00 | 0.07 | 0.00 | 61 | 1005.5 |
| 20260508053503 | 43 | 267 | 4.3 | 8.7 | 0.00 | 0.07 | 0.00 | 61 | 1005.5 |
| 20260508053003 | 43 | 264 | 3.5 | 8.7 | 0.00 | 0.07 | 0.00 | 60 | 1005.5 |
| 20260508052503 | 43 | 262 | 4.3 | 10.4 | 0.00 | 0.09 | 0.00 | 60 | 1005.5 |
| 20260508052003 | 43 | 261 | 4.3 | 10.4 | 0.00 | 0.09 | 0.00 | 59 | 1005.5 |
| 20260508051503 | 43 | 260 | 5.2 | 12.2 | 0.00 | 0.10 | 0.00 | 60 | 1005.5 |
| 20260508051003 | 43 | 260 | 5.2 | 12.2 | 0.00 | 0.11 | 0.00 | 61 | 1005.4 |
| 20260508050503 | 43 | 261 | 5.2 | 8.7 | 0.00 | 0.11 | 0.00 | 61 | 1005.4 |
| 20260508050003 | 43 | 262 | 4.3 | 8.7 | 0.00 | 0.12 | 0.00 | 62 | 1005.5 |
| 20260508045503 | 42 | 260 | 4.3 | 8.7 | 0.00 | 0.13 | 0.00 | 63 | 1005.6 |
| 20260508045024 | 42 | 258 | 3.5 | 8.7 | 0.00 | 0.13 | 0.00 | 64 | 1005.7 |
| 20260508044503 | 42 | 259 | 3.5 | 8.7 | 0.00 | 0.14 | 0.00 | 64 | 1005.7 |
| 20260508044003 | 42 | 268 | 3.5 | 7.8 | 0.00 | 0.14 | 0.00 | 64 | 1005.8 |
| 20260508043503 | 42 | 278 | 2.6 | 6.1 | 0.00 | 0.14 | 0.00 | 64 | 1005.7 |
| 20260508043003 | 42 | 280 | 2.6 | 6.1 | 0.00 | 0.15 | 0.00 | 64 | 1005.7 |
| 20260508042524 | 42 | 281 | 2.6 | 6.1 | 0.00 | 0.15 | 0.00 | 65 | 1005.8 |
| 20260508042003 | 42 | 273 | 1.7 | 4.3 | 0.00 | 0.15 | 0.00 | 65 | 1005.9 |
| 20260508041504 | 42 | 252 | 0.9 | 3.5 | 0.00 | 0.16 | 0.00 | 65 | 1006.1 |
| 20260508041003 | 41 | 229 | 0.0 | 3.5 | 0.00 | 0.16 | 0.00 | 66 | 1006.1 |
| 20260508040503 | 42 | 229 | 0.0 | 3.5 | 0.00 | 0.16 | 0.00 | 65 | 1006.2 |
| 20260508040003 | 42 | 0 | 0.0 | 0.0 | 0.00 | 0.16 | 0.00 | 64 | 1006.2 |
| 20260508035503 | 42 | 0 | 0.0 | 0.0 | 0.00 | 0.16 | 0.16 | 63 | 1006.2 |
| 20260508035024 | 42 | 0 | 0.0 | 0.0 | 0.00 | 0.16 | 0.16 | 62 | 1006.2 |
| 20260508034503 | 42 | 0 | 0.0 | 0.0 | 0.00 | 0.16 | 0.16 | 63 | 1006.4 |
| 20260508034024 | 42 | 0 | 0.0 | 0.0 | 0.00 | 0.17 | 0.16 | 64 | 1006.3 |
| 20260508033503 | 42 | 246 | 0.0 | 3.5 | 0.00 | 0.17 | 0.16 | 64 | 1006.3 |
| 20260508033024 | 43 | 265 | 0.9 | 3.5 | 0.00 | 0.17 | 0.16 | 63 | 1006.2 |
| 20260508032503 | 43 | 259 | 1.7 | 3.5 | 0.00 | 0.17 | 0.16 | 62 | 1006.0 |
| 20260508032003 | 44 | 242 | 1.7 | 3.5 | 0.00 | 0.17 | 0.16 | 60 | 1006.0 |
| 20260508031503 | 44 | 228 | 1.7 | 2.6 | 0.00 | 0.17 | 0.16 | 58 | 1006.0 |
| 20260508031003 | 44 | 227 | 0.9 | 2.6 | 0.00 | 0.17 | 0.16 | 58 | 1006.2 |
| 20260508030503 | 44 | 227 | 0.0 | 0.9 | 0.00 | 0.17 | 0.16 | 60 | 1006.2 |
| 20260508030003 | 44 | 227 | 0.0 | 1.7 | 0.00 | 0.17 | 0.16 | 60 | 1006.1 |
| 20260508025524 | 44 | 231 | 0.9 | 2.6 | 0.00 | 0.17 | 0.16 | 58 | 1006.1 |
| 20260508025003 | 45 | 256 | 0.9 | 6.1 | 0.00 | 0.17 | 0.16 | 55 | 1006.0 |
| 20260508024503 | 45 | 268 | 2.6 | 6.1 | 0.00 | 0.17 | 0.16 | 56 | 1005.8 |
| 20260508024003 | 45 | 280 | 2.6 | 6.1 | 0.00 | 0.17 | 0.16 | 57 | 1005.9 |
| 20260508023503 | 45 | 275 | 2.6 | 6.1 | 0.00 | 0.17 | 0.16 | 56 | 1005.8 |
| 20260508023003 | 45 | 268 | 2.6 | 6.1 | 0.00 | 0.17 | 0.16 | 57 | 1005.7 |
| 20260508022503 | 46 | 280 | 1.7 | 5.2 | 0.00 | 0.17 | 0.16 | 55 | 1005.8 |
| 20260508022003 | 46 | 278 | 1.7 | 5.2 | 0.00 | 0.17 | 0.16 | 54 | 1005.9 |
| 20260508021524 | 46 | 267 | 1.7 | 3.5 | 0.00 | 0.17 | 0.16 | 54 | 1005.8 |
| 20260508021003 | 47 | 283 | 2.6 | 6.1 | 0.00 | 0.17 | 0.16 | 52 | 1005.8 |
| 20260508020524 | 47 | 293 | 2.6 | 7.8 | 0.00 | 0.17 | 0.16 | 51 | 1005.8 |
| 20260508020003 | 47 | 282 | 2.6 | 7.8 | 0.00 | 0.17 | 0.16 | 51 | 1005.9 |
| 20260508015503 | 47 | 269 | 2.6 | 7.8 | 0.00 | 0.17 | 0.16 | 51 | 1005.8 |
| 20260508015003 | 47 | 277 | 2.6 | 7.8 | 0.00 | 0.17 | 0.16 | 51 | 1005.8 |
| 20260508014503 | 47 | 297 | 2.6 | 7.8 | 0.00 | 0.17 | 0.16 | 51 | 1005.7 |
| 20260508014003 | 48 | 301 | 3.5 | 7.8 | 0.00 | 0.17 | 0.16 | 50 | 1005.8 |
| 20260508013503 | 48 | 300 | 4.3 | 8.7 | 0.00 | 0.17 | 0.16 | 50 | 1005.9 |
| 20260508013003 | 48 | 303 | 3.5 | 8.7 | 0.00 | 0.17 | 0.16 | 49 | 1005.9 |
| 20260508012503 | 48 | 297 | 3.5 | 8.7 | 0.00 | 0.17 | 0.16 | 49 | 1005.9 |
| 20260508012003 | 48 | 295 | 2.6 | 7.0 | 0.00 | 0.17 | 0.16 | 50 | 1006.0 |
| 20260508011524 | 48 | 293 | 1.7 | 7.0 | 0.00 | 0.17 | 0.16 | 50 | 1006.0 |
| 20260508011003 | 49 | 295 | 2.6 | 7.8 | 0.00 | 0.17 | 0.16 | 50 | 1005.9 |
| 20260508010503 | 49 | 301 | 3.5 | 9.6 | 0.00 | 0.17 | 0.16 | 49 | 1005.9 |
| 20260508010003 | 49 | 298 | 3.5 | 9.6 | 0.00 | 0.17 | 0.16 | 49 | 1005.9 |
| 20260508005503 | 49 | 292 | 2.6 | 8.7 | 0.00 | 0.17 | 0.16 | 49 | 1005.8 |
| 20260508005003 | 49 | 296 | 3.5 | 9.6 | 0.00 | 0.17 | 0.16 | 49 | 1005.9 |
| 20260508004503 | 50 | 300 | 4.3 | 10.4 | 0.00 | 0.17 | 0.16 | 48 | 1005.7 |
| 20260508004024 | 50 | 303 | 4.3 | 10.4 | 0.00 | 0.17 | 0.16 | 48 | 1005.7 |
| 20260508003503 | 50 | 309 | 5.2 | 12.2 | 0.00 | 0.17 | 0.16 | 48 | 1005.6 |
| 20260508003024 | 50 | 306 | 7.0 | 13.9 | 0.00 | 0.17 | 0.16 | 47 | 1005.6 |
| 20260508002503 | 51 | 302 | 7.8 | 18.2 | 0.00 | 0.17 | 0.16 | 46 | 1005.5 |
| 20260508002003 | 51 | 302 | 7.0 | 18.2 | 0.00 | 0.17 | 0.16 | 46 | 1005.5 |
| 20260508001503 | 51 | 309 | 6.1 | 11.3 | 0.00 | 0.17 | 0.16 | 47 | 1005.4 |
| 20260508001003 | 51 | 309 | 6.1 | 14.8 | 0.00 | 0.17 | 0.16 | 47 | 1005.4 |
| 20260508000503 | 52 | 311 | 7.8 | 16.5 | 0.00 | 0.17 | 0.16 | 46 | 1005.4 |
| 20260508000003 | 52 | 313 | 8.7 | 16.5 | 0.00 | 0.17 | 0.16 | 46 | 1005.2 |
| 20260507235503 | 52 | 315 | 7.8 | 14.8 | 0.00 | 0.17 | 0.16 | 46 | 1005.1 |
| 20260507235003 | 52 | 308 | 7.8 | 16.5 | 0.00 | 0.17 | 0.16 | 46 | 1005.1 |
| 20260507234524 | 53 | 305 | 7.0 | 16.5 | 0.00 | 0.17 | 0.16 | 45 | 1004.9 |
| 20260507234003 | 53 | 309 | 6.1 | 16.5 | 0.00 | 0.17 | 0.16 | 46 | 1004.8 |
| 20260507233524 | 54 | 308 | 7.0 | 15.6 | 0.00 | 0.17 | 0.16 | 46 | 1004.7 |
| 20260507233024 | 54 | 312 | 7.8 | 18.2 | 0.00 | 0.17 | 0.16 | 46 | 1004.6 |
| 20260507232503 | 54 | 312 | 7.8 | 18.2 | 0.00 | 0.17 | 0.16 | 47 | 1004.4 |
| 20260507232003 | 55 | 308 | 7.8 | 18.2 | 0.00 | 0.18 | 0.16 | 47 | 1004.3 |
| 20260507231503 | 55 | 307 | 7.8 | 20.9 | 0.00 | 0.18 | 0.16 | 47 | 1004.1 |
| 20260507231003 | 56 | 302 | 8.7 | 20.9 | 0.00 | 0.18 | 0.16 | 48 | 1003.9 |
| 20260507230524 | 56 | 301 | 7.0 | 16.5 | 0.00 | 0.18 | 0.16 | 47 | 1003.9 |
| 20260507230003 | 57 | 300 | 7.0 | 16.5 | 0.00 | 0.19 | 0.16 | 48 | 1003.6 |
| 20260507225503 | 57 | 298 | 7.0 | 14.8 | 0.00 | 0.20 | 0.16 | 49 | 1003.5 |
| 20260507225003 | 58 | 301 | 6.1 | 14.8 | 0.00 | 0.20 | 0.16 | 47 | 1003.3 |
| 20260507224504 | 58 | 302 | 5.2 | 12.2 | 0.00 | 0.22 | 0.16 | 46 | 1003.1 |
| 20260507224003 | 58 | 316 | 5.2 | 12.2 | 0.00 | 0.23 | 0.16 | 46 | 1003.0 |
| 20260507223503 | 59 | 317 | 7.0 | 16.5 | 0.00 | 0.24 | 0.16 | 45 | 1002.9 |
| 20260507223003 | 59 | 304 | 7.0 | 16.5 | 0.00 | 0.25 | 0.16 | 44 | 1002.9 |
| 20260507222503 | 60 | 297 | 7.0 | 13.0 | 0.00 | 0.25 | 0.16 | 43 | 1003.0 |
| 20260507222003 | 60 | 285 | 7.8 | 14.8 | 0.00 | 0.27 | 0.16 | 41 | 1002.8 |
| 20260507221503 | 61 | 283 | 7.8 | 14.8 | 0.00 | 0.27 | 0.16 | 39 | 1002.7 |
| 20260507221024 | 61 | 292 | 6.1 | 13.9 | 0.00 | 0.28 | 0.16 | 38 | 1002.7 |
| 20260507220503 | 61 | 284 | 6.1 | 12.2 | 0.00 | 0.30 | 0.16 | 39 | 1002.6 |
| 20260507220003 | 61 | 279 | 7.0 | 15.6 | 0.00 | 0.31 | 0.16 | 41 | 1002.5 |
| 20260507215503 | 61 | 282 | 7.0 | 16.5 | 0.00 | 0.32 | 0.16 | 41 | 1002.5 |
| 20260507215003 | 61 | 282 | 5.2 | 16.5 | 0.00 | 0.32 | 0.16 | 43 | 1002.4 |
| 20260507214503 | 60 | 269 | 4.3 | 11.3 | 0.00 | 0.32 | 0.16 | 48 | 1002.6 |
| 20260507214003 | 60 | 265 | 5.2 | 11.3 | 0.00 | 0.33 | 0.16 | 47 | 1002.5 |
| 20260507213503 | 60 | 265 | 4.3 | 11.3 | 0.00 | 0.34 | 0.16 | 48 | 1002.5 |
| 20260507213003 | 61 | 251 | 4.3 | 9.6 | 0.00 | 0.35 | 0.16 | 49 | 1002.6 |
| 20260507212503 | 60 | 254 | 6.1 | 13.0 | 0.00 | 0.35 | 0.16 | 48 | 1002.5 |
| 20260507212003 | 60 | 262 | 6.1 | 13.0 | 0.00 | 0.36 | 0.16 | 48 | 1002.6 |
| 20260507211503 | 60 | 263 | 6.1 | 13.9 | 0.00 | 0.37 | 0.16 | 49 | 1002.5 |
| 20260507211003 | 60 | 263 | 7.0 | 13.9 | 0.00 | 0.37 | 0.16 | 50 | 1002.4 |
| 20260507210503 | 60 | 265 | 6.1 | 13.0 | 0.00 | 0.37 | 0.16 | 48 | 1002.4 |
| 20260507210003 | 60 | 257 | 6.1 | 11.3 | 0.00 | 0.37 | 0.16 | 49 | 1002.4 |
| 20260507205503 | 60 | 245 | 5.2 | 11.3 | 0.00 | 0.38 | 0.16 | 51 | 1002.3 |
| 20260507205003 | 60 | 253 | 4.3 | 8.7 | 0.00 | 0.38 | 0.16 | 49 | 1002.2 |
| 20260507204503 | 60 | 260 | 5.2 | 13.0 | 0.00 | 0.38 | 0.16 | 50 | 1002.2 |
| 20260507204003 | 60 | 256 | 5.2 | 13.0 | 0.00 | 0.39 | 0.16 | 50 | 1002.1 |
| 20260507203503 | 60 | 259 | 5.2 | 12.2 | 0.00 | 0.40 | 0.16 | 50 | 1002.1 |
| 20260507203003 | 61 | 259 | 5.2 | 12.2 | 0.00 | 0.40 | 0.16 | 50 | 1002.1 |
| 20260507202503 | 61 | 253 | 5.2 | 13.0 | 0.00 | 0.40 | 0.16 | 51 | 1002.1 |
| 20260507202024 | 60 | 254 | 5.2 | 13.0 | 0.00 | 0.40 | 0.16 | 52 | 1001.9 |
| 20260507201503 | 60 | 268 | 3.5 | 11.3 | 0.00 | 0.40 | 0.16 | 53 | 1002.0 |
| 20260507201003 | 60 | 277 | 2.6 | 7.8 | 0.00 | 0.40 | 0.16 | 55 | 1002.0 |
| 20260507200524 | 60 | 284 | 3.5 | 7.8 | 0.00 | 0.40 | 0.16 | 54 | 1002.0 |
| 20260507200003 | 60 | 306 | 2.6 | 7.8 | 0.00 | 0.40 | 0.16 | 57 | 1002.0 |
| 20260507195503 | 59 | 308 | 2.6 | 7.0 | 0.00 | 0.40 | 0.16 | 57 | 1002.1 |
| 20260507195003 | 60 | 295 | 3.5 | 7.0 | 0.00 | 0.40 | 0.16 | 58 | 1002.1 |
| 20260507194503 | 60 | 298 | 4.3 | 12.2 | 0.00 | 0.40 | 0.16 | 55 | 1002.1 |
| 20260507194003 | 62 | 295 | 6.1 | 13.0 | 0.00 | 0.40 | 0.16 | 54 | 1002.1 |
| 20260507193503 | 63 | 275 | 5.2 | 13.0 | 0.00 | 0.40 | 0.16 | 51 | 1002.0 |
| 20260507193003 | 61 | 249 | 5.2 | 12.2 | 0.00 | 0.40 | 0.16 | 50 | 1002.1 |
| 20260507192503 | 62 | 235 | 7.0 | 13.0 | 0.00 | 0.40 | 0.16 | 49 | 1002.0 |
| 20260507192003 | 62 | 222 | 7.0 | 14.8 | 0.00 | 0.40 | 0.16 | 48 | 1002.0 |
| 20260507191503 | 62 | 226 | 6.1 | 14.8 | 0.00 | 0.40 | 0.16 | 47 | 1002.0 |
| 20260507191024 | 64 | 246 | 6.1 | 10.4 | 0.00 | 0.40 | 0.16 | 46 | 1002.2 |
| 20260507190503 | 64 | 246 | 6.1 | 12.2 | 0.00 | 0.40 | 0.16 | 47 | 1002.1 |
| 20260507190004 | 62 | 241 | 7.8 | 17.4 | 0.00 | 0.40 | 0.16 | 47 | 1002.2 |
| 20260507185524 | 63 | 241 | 8.7 | 17.4 | 0.00 | 0.40 | 0.16 | 47 | 1002.2 |
| 20260507185024 | 63 | 238 | 6.1 | 14.8 | 0.00 | 0.40 | 0.16 | 49 | 1002.2 |
| 20260507184524 | 62 | 240 | 6.1 | 17.4 | 0.00 | 0.40 | 0.16 | 51 | 1002.3 |
| 20260507184003 | 62 | 235 | 7.0 | 17.4 | 0.00 | 0.40 | 0.16 | 48 | 1002.3 |
| 20260507183503 | 62 | 236 | 6.1 | 13.9 | 0.00 | 0.40 | 0.16 | 47 | 1002.3 |
| 20260507183024 | 62 | 246 | 7.0 | 14.8 | 0.00 | 0.40 | 0.16 | 48 | 1002.4 |
| 20260507182503 | 62 | 241 | 7.0 | 14.8 | 0.00 | 0.40 | 0.16 | 50 | 1002.6 |
| 20260507182003 | 62 | 238 | 7.0 | 12.2 | 0.00 | 0.40 | 0.16 | 49 | 1002.6 |
| 20260507181503 | 63 | 241 | 6.1 | 12.2 | 0.00 | 0.40 | 0.16 | 48 | 1002.6 |
| 20260507181003 | 63 | 255 | 5.2 | 9.6 | 0.00 | 0.40 | 0.16 | 48 | 1002.7 |
| 20260507180503 | 63 | 259 | 5.2 | 13.0 | 0.00 | 0.40 | 0.16 | 47 | 1002.6 |
| 20260507180003 | 62 | 251 | 5.2 | 13.0 | 0.00 | 0.40 | 0.16 | 48 | 1002.7 |
| 20260507175503 | 62 | 248 | 6.1 | 11.3 | 0.00 | 0.40 | 0.16 | 49 | 1002.8 |
| 20260507175024 | 61 | 248 | 5.2 | 11.3 | 0.00 | 0.40 | 0.16 | 49 | 1002.8 |
| 20260507174503 | 61 | 246 | 3.5 | 9.6 | 0.00 | 0.40 | 0.16 | 50 | 1002.9 |
| 20260507174003 | 60 | 251 | 4.3 | 9.6 | 0.00 | 0.40 | 0.16 | 51 | 1002.9 |
| 20260507173503 | 61 | 272 | 3.5 | 8.7 | 0.00 | 0.40 | 0.16 | 50 | 1002.9 |
| 20260507173003 | 60 | 294 | 2.6 | 8.7 | 0.00 | 0.40 | 0.16 | 51 | 1002.9 |
| 20260507172503 | 60 | 298 | 2.6 | 7.8 | 0.00 | 0.40 | 0.16 | 47 | 1003.0 |
| 20260507172003 | 60 | 293 | 3.5 | 8.7 | 0.00 | 0.40 | 0.16 | 50 | 1002.9 |
| 20260507171524 | 60 | 305 | 4.3 | 8.7 | 0.00 | 0.40 | 0.16 | 50 | 1002.9 |
| 20260507171003 | 61 | 305 | 3.5 | 8.7 | 0.00 | 0.40 | 0.16 | 51 | 1003.0 |
| 20260507170503 | 60 | 294 | 3.5 | 7.8 | 0.00 | 0.40 | 0.16 | 54 | 1003.1 |
| 20260507170003 | 60 | 296 | 3.5 | 8.7 | 0.00 | 0.40 | 0.16 | 54 | 1003.2 |
| 20260507165503 | 60 | 270 | 3.5 | 11.3 | 0.00 | 0.40 | 0.16 | 54 | 1003.2 |
| 20260507165003 | 61 | 244 | 5.2 | 11.3 | 0.00 | 0.40 | 0.16 | 53 | 1003.3 |
| 20260507164503 | 62 | 245 | 5.2 | 11.3 | 0.00 | 0.40 | 0.16 | 55 | 1003.3 |
| 20260507164024 | 61 | 282 | 5.2 | 11.3 | 0.00 | 0.40 | 0.16 | 51 | 1003.3 |
| 20260507163524 | 60 | 307 | 4.3 | 8.7 | 0.00 | 0.40 | 0.16 | 52 | 1003.4 |
| 20260507163003 | 60 | 275 | 4.3 | 8.7 | 0.00 | 0.40 | 0.16 | 52 | 1003.6 |
| 20260507162503 | 60 | 268 | 3.5 | 8.7 | 0.00 | 0.40 | 0.16 | 54 | 1003.7 |
| 20260507162003 | 58 | 254 | 3.5 | 8.7 | 0.00 | 0.40 | 0.16 | 54 | 1003.8 |
| 20260507161503 | 59 | 223 | 3.5 | 8.7 | 0.00 | 0.40 | 0.16 | 56 | 1003.8 |
| 20260507161024 | 59 | 235 | 4.3 | 8.7 | 0.00 | 0.40 | 0.16 | 56 | 1003.8 |
| 20260507160503 | 60 | 260 | 2.6 | 7.0 | 0.00 | 0.40 | 0.16 | 59 | 1003.8 |
| 20260507160003 | 60 | 338 | 2.6 | 7.0 | 0.00 | 0.40 | 0.16 | 60 | 1003.9 |
| 20260507155503 | 59 | 273 | 2.6 | 7.0 | 0.00 | 0.40 | 0.16 | 57 | 1003.9 |
| 20260507155003 | 58 | 277 | 3.5 | 7.0 | 0.00 | 0.40 | 0.16 | 58 | 1004.0 |
| 20260507154503 | 58 | 334 | 2.6 | 7.0 | 0.00 | 0.40 | 0.16 | 57 | 1003.9 |
| 20260507154003 | 58 | 37 | 1.7 | 3.5 | 0.00 | 0.40 | 0.16 | 56 | 1004.0 |
| 20260507153504 | 58 | 12 | 2.6 | 7.8 | 0.00 | 0.40 | 0.16 | 58 | 1004.1 |
| 20260507153003 | 58 | 2 | 1.7 | 7.8 | 0.00 | 0.40 | 0.16 | 58 | 1004.0 |
| 20260507152503 | 58 | 309 | 1.7 | 3.5 | 0.00 | 0.40 | 0.16 | 61 | 1004.2 |
| 20260507152003 | 58 | 316 | 2.6 | 7.0 | 0.00 | 0.40 | 0.16 | 57 | 1004.1 |
| 20260507151503 | 58 | 318 | 2.6 | 7.0 | 0.00 | 0.40 | 0.16 | 60 | 1004.2 |
| 20260507151003 | 57 | 269 | 1.7 | 7.0 | 0.00 | 0.40 | 0.16 | 62 | 1004.4 |
| 20260507150503 | 56 | 234 | 1.7 | 7.0 | 0.00 | 0.40 | 0.16 | 63 | 1004.4 |
| 20260507150003 | 56 | 205 | 1.7 | 4.3 | 0.00 | 0.40 | 0.16 | 69 | 1004.5 |
| 20260507145503 | 55 | 196 | 2.6 | 5.2 | 0.00 | 0.40 | 0.16 | 65 | 1004.6 |
| 20260507145003 | 56 | 220 | 2.6 | 5.2 | 0.00 | 0.40 | 0.16 | 67 | 1004.7 |
| 20260507144503 | 56 | 266 | 1.7 | 5.2 | 0.00 | 0.40 | 0.16 | 66 | 1004.7 |
| 20260507144003 | 55 | 297 | 2.6 | 7.0 | 0.00 | 0.40 | 0.16 | 66 | 1004.7 |
| 20260507143503 | 56 | 309 | 2.6 | 7.0 | 0.00 | 0.40 | 0.16 | 65 | 1004.9 |
| 20260507143003 | 55 | 286 | 3.5 | 7.8 | 0.00 | 0.40 | 0.16 | 68 | 1004.9 |
| 20260507142503 | 55 | 274 | 2.6 | 7.8 | 0.00 | 0.40 | 0.16 | 69 | 1004.9 |
| 20260507142003 | 55 | 279 | 1.7 | 5.2 | 0.00 | 0.40 | 0.16 | 71 | 1005.1 |
| 20260507141503 | 54 | 302 | 2.6 | 8.7 | 0.00 | 0.40 | 0.16 | 68 | 1005.1 |
| 20260507141003 | 54 | 281 | 4.3 | 8.7 | 0.00 | 0.40 | 0.16 | 69 | 1005.0 |
| 20260507140524 | 54 | 251 | 3.5 | 7.8 | 0.00 | 0.40 | 0.16 | 69 | 1005.0 |
| 20260507140003 | 54 | 268 | 3.5 | 7.8 | 0.00 | 0.40 | 0.16 | 70 | 1005.1 |
| 20260507135503 | 54 | 294 | 5.2 | 9.6 | 0.00 | 0.40 | 0.16 | 72 | 1005.1 |
| 20260507135003 | 54 | 309 | 5.2 | 9.6 | 0.00 | 0.40 | 0.16 | 71 | 1005.3 |
| 20260507134503 | 54 | 309 | 3.5 | 8.7 | 0.00 | 0.40 | 0.16 | 72 | 1005.2 |
| 20260507134024 | 54 | 276 | 1.7 | 7.0 | 0.00 | 0.40 | 0.16 | 74 | 1005.2 |
| 20260507133503 | 53 | 278 | 1.7 | 7.0 | 0.00 | 0.40 | 0.16 | 74 | 1005.1 |
| 20260507133024 | 53 | 286 | 2.6 | 7.8 | 0.00 | 0.40 | 0.16 | 74 | 1005.1 |
| 20260507132503 | 53 | 277 | 3.5 | 7.8 | 0.00 | 0.40 | 0.16 | 74 | 1005.3 |
| 20260507132024 | 53 | 273 | 3.5 | 7.8 | 0.00 | 0.40 | 0.16 | 74 | 1005.3 |
| 20260507131524 | 52 | 265 | 4.3 | 7.8 | 0.00 | 0.40 | 0.16 | 74 | 1005.2 |
| 20260507131003 | 52 | 310 | 4.3 | 9.6 | 0.00 | 0.40 | 0.16 | 76 | 1005.2 |
| 20260507130503 | 51 | 338 | 5.2 | 9.6 | 0.00 | 0.40 | 0.16 | 74 | 1005.2 |
| 20260507130024 | 52 | 330 | 5.2 | 12.2 | 0.00 | 0.40 | 0.16 | 75 | 1005.3 |
| 20260507125524 | 51 | 318 | 6.1 | 12.2 | 0.00 | 0.40 | 0.16 | 75 | 1005.2 |
| 20260507125003 | 51 | 308 | 6.1 | 11.3 | 0.00 | 0.40 | 0.16 | 76 | 1005.2 |
| 20260507124503 | 51 | 310 | 4.3 | 11.3 | 0.00 | 0.40 | 0.16 | 77 | 1005.1 |
| 20260507124003 | 50 | 314 | 5.2 | 11.3 | 0.00 | 0.40 | 0.16 | 77 | 1005.1 |
| 20260507123524 | 50 | 313 | 6.1 | 12.2 | 0.00 | 0.40 | 0.16 | 77 | 1005.4 |
| 20260507123003 | 50 | 307 | 5.2 | 12.2 | 0.00 | 0.40 | 0.16 | 78 | 1005.2 |
| 20260507122503 | 50 | 300 | 3.5 | 12.2 | 0.00 | 0.40 | 0.16 | 80 | 1005.4 |
| 20260507122003 | 50 | 287 | 2.6 | 9.6 | 0.00 | 0.40 | 0.16 | 80 | 1005.4 |
| 20260507121524 | 50 | 290 | 4.3 | 9.6 | 0.00 | 0.40 | 0.16 | 81 | 1005.4 |
| 20260507121024 | 49 | 302 | 4.3 | 9.6 | 0.00 | 0.40 | 0.16 | 81 | 1005.2 |
| 20260507120503 | 49 | 286 | 3.5 | 8.7 | 0.00 | 0.40 | 0.16 | 82 | 1005.6 |
| 20260507120004 | 49 | 262 | 3.5 | 10.4 | 0.00 | 0.40 | 0.16 | 83 | 1005.6 |
| 20260507115503 | 48 | 274 | 3.5 | 10.4 | 0.00 | 0.40 | 0.16 | 83 | 1005.4 |
| 20260507115003 | 48 | 282 | 2.6 | 7.0 | 0.00 | 0.40 | 0.16 | 84 | 1005.3 |
| 20260507114503 | 48 | 260 | 2.6 | 7.0 | 0.00 | 0.40 | 0.16 | 85 | 1005.7 |
| 20260507114003 | 48 | 243 | 2.6 | 6.1 | 0.00 | 0.40 | 0.16 | 85 | 1005.8 |
| 20260507113503 | 48 | 257 | 3.5 | 7.8 | 0.00 | 0.40 | 0.16 | 85 | 1005.9 |
| 20260507113003 | 47 | 273 | 3.5 | 7.8 | 0.00 | 0.40 | 0.16 | 85 | 1005.6 |
| 20260507112503 | 47 | 279 | 3.5 | 8.7 | 0.00 | 0.40 | 0.16 | 85 | 1005.3 |
| 20260507112003 | 47 | 279 | 4.3 | 10.4 | 0.00 | 0.40 | 0.16 | 86 | 1005.7 |
| 20260507111503 | 47 | 280 | 4.3 | 10.4 | 0.00 | 0.40 | 0.16 | 86 | 1005.6 |
| 20260507111003 | 47 | 287 | 3.5 | 8.7 | 0.00 | 0.40 | 0.16 | 87 | 1005.1 |
| 20260507110503 | 47 | 289 | 3.5 | 8.7 | 0.00 | 0.40 | 0.16 | 87 | 1005.4 |
| 20260507110003 | 47 | 283 | 4.3 | 10.4 | 0.00 | 0.40 | 0.16 | 88 | 1005.3 |
| 20260507105503 | 47 | 277 | 4.3 | 10.4 | 0.00 | 0.40 | 0.16 | 88 | 1005.4 |
| 20260507105003 | 47 | 281 | 4.3 | 8.7 | 0.00 | 0.40 | 0.16 | 90 | 1005.4 |
| 20260507104503 | 46 | 296 | 3.5 | 8.7 | 0.00 | 0.40 | 0.16 | 90 | 1005.2 |
| 20260507104003 | 46 | 302 | 2.6 | 7.8 | 0.00 | 0.40 | 0.16 | 90 | 1005.1 |
| 20260507103503 | 46 | 285 | 3.5 | 7.0 | 0.00 | 0.40 | 0.16 | 90 | 1005.0 |
| 20260507103003 | 46 | 280 | 2.6 | 6.1 | 0.00 | 0.40 | 0.16 | 91 | 1005.2 |
| 20260507102524 | 45 | 289 | 2.6 | 7.0 | 0.00 | 0.40 | 0.16 | 91 | 1005.2 |
| 20260507102003 | 45 | 290 | 2.6 | 7.0 | 0.00 | 0.40 | 0.16 | 91 | 1005.0 |
| 20260507101503 | 45 | 296 | 3.5 | 8.7 | 0.00 | 0.40 | 0.16 | 91 | 1005.0 |
| 20260507101003 | 45 | 304 | 3.5 | 8.7 | 0.00 | 0.40 | 0.16 | 91 | 1004.9 |